Temperature
14 14 14 14 14 14 14 14 14 14 14 14 14 14 15 15 15 15 15 15 15 15 15 15 15 15 15 15 15 15 15 15 15 15 15 15 15 15 15 15 14 15 15
14 14 14 14 14 14 14 14 14 14 14 14 14 14 14 14 15 15 15 15 15 15 15 15 15 15 15 15 15 14 14 14 15 15 15 15 15 15 15 15 14 14 15
13 13 14 14 14 14 14 14 14 14 14 14 14 14 14 14 14 14 14 15 15 15 15 15 15 15 15 14 14 14 14 14 14 14 14 14 14 14 14 14 14 14 14
13 13 13 14 14 14 14 14 14 14 14 14 14 14 14 14 14 14 14 14 14 14 14 14 14 14 14 14 14 14 14 14 14 14 14 13 14 14 14 14 14 14 14
13 13 13 13 13 13 13 13 14 14 14 14 14 14 14 14 14 14 14 14 14 14 14 14 14 14 14 14 14 14 14 14 14 14 13 13 13 14 14 14 14 14 14
13 13 13 13 13 13 13 13 13 13 14 14 14 14 14 14 14 14 14 14 14 14 14 14 14 14 14 14 14 14 14 14 13 13 13 13 13 14 14 14 14 14 14
13 13 13 13 13 13 13 13 13 13 13 13 13 13 13 13 13 13 14 14 14 14 14 14 14 14 14 14 14 14 14 14 13 13 13 13 13 13 13 13 13 13 14
13 13 13 13 13 13 13 13 13 13 13 13 13 13 13 13 13 13 13 13 13 13 13 13 14 14 14 14 14 14 13 13 13 13 13 13 13 13 13 13 13 13 13
13 13 13 12 12 12 12 13 13 13 13 13 13 13 13 13 13 13 13 13 13 13 13 13 13 13 13 13 13 13 13 13 12 12 12 13 13 13 13 13 13 13 13
12 12 12 12 12 12 12 12 12 12 13 13 13 13 13 13 13 13 13 13 13 13 13 13 13 13 13 13 13 13 13 13 12 12 12 12 13 13 12 13 13 13 13
12 12 12 12 12 12 12 12 12 12 12 12 12 12 12 12 12 12 12 12 12 13 13 13 13 13 13 12 12 13 13 12 12 12 12 12 12 12 12 12 12 12 12
12 12 12 12 12 12 12 12 12 12 12 12 12 12 12 12 12 12 12 12 12 12 12 12 12 12 12 12 12 12 12 12 12 12 12 12 12 12 12 12 12 12 12
12 12 12 12 12 12 12 11 11 11 11 11 11 11 12 12 12 12 12 12 12 12 12 12 12 12 12 12 12 12 11 11 11 11 11 12 12 12 12 12 12 12 12
12 12 12 12 11 11 11 11 11 11 11 11 11 11 11 11 11 11 11 11 11 11 11 11 11 11 11 11 11 11 11 11 11 11 11 12 11 11 11 11 11 11 11
11 11 11 11 11 11 11 11 11 11 11 11 11 11 11 11 11 11 11 11 11 11 11 11 11 11 11 11 11 11 11 11 11 11 11 11 11 11 11 11 11 11 11
11 11 11 11 11 11 11 11 11 11 11 11 11 11 11 11 11 11 11 11 11 11 11 11 11 11 11 11 10 10 10 10 10 10 10 10 11 11 11 11 11 11 11
11 11 11 11 11 11 11 10 10 10 10 10 10 10 10 10 10 10 10 10 10 10 10 10 10 10 10 10 10 10 10 10 10 10 10 10 10 10 10 10 10 10 10
11 11 11 10 10 10 10 10 10 10 10 10 10 10 10 10 10 10 10 10 10 10 10 10 10 10 10 10 9 10 9 9 9 9 9 9 10 10 10 10 10 10 10
10 10 10 10 10 10 10 10 10 10 10 9 9 9 10 10 10 10 10 10 10 9 9 9 9 9 9 9 9 9 9 9 9 9 9 9 9 9 9 10 10 9 9
10 10 10 10 10 10 10 9 9 9 9 9 9 9 9 9 9 9 9 9 9 9 9 9 9 9 8 8 8 8 8 8 9 9 9 9 9 9 9 9 9 9 9
10 10 10 9 9 9 9 9 9 9 9 9 9 9 9 9 9 9 9 9 8 8 8 8 8 8 8 8 8 7 8 8 8 8 8 8 8 8 8 8 8 8 8
9 9 9 9 9 9 9 9 9 9 9 9 8 8 8 8 8 8 8 8 8 8 8 8 8 8 7 7 7 7 7 6 7 7 7 7 7 7 8 8 8 8 8
8 8 9 9 9 9 9 9 9 8 8 8 8 8 8 8 8 8 8 8 8 8 8 8 7 7 7 7 7 7 7 6 6 6 7 6 7 7 7 7 7 7 7
8 8 8 8 8 8 8 8 8 8 8 8 8 8 8 8 8 8 8 8 8 8 7 7 7 7 7 7 6 6 6 6 6 5 6 6 6 6 6 6 7 7 7
7 7 7 7 8 8 8 8 8 8 8 8 8 7 7 7 7 7 7 7 7 7 7 7 7 7 7 7 6 6 6 6 6 6 5 5 5 5 6 6 6 6 6
7 7 7 7 7 7 7 7 7 7 7 7 7 7 7 7 7 7 7 7 7 7 7 7 7 7 7 6 6 6 6 6 6 6 5 5 4 5 5 5 5 5 6
Wind_Speed
5 6 6 6 6 7 7 8 8 7 7 7 7 7 7 7 7 8 7 7 8 8 9 9 9 10 10 10 11 12 12 12 13 12 12 12 13 12 12 10 10 13 14
6 7 7 6 7 7 7 8 8 7 7 7 7 7 7 7 7 7 7 7 7 8 9 9 9 10 10 10 11 11 11 11 12 11 11 11 11 11 11 10 10 12 13
6 7 8 7 8 7 7 7 7 7 6 6 6 6 6 6 6 7 7 7 7 8 8 9 9 10 10 10 10 11 11 10 10 9 7 9 10 10 11 11 12 12 12
7 7 7 8 8 8 7 6 6 6 5 5 6 5 5 5 5 6 6 6 7 8 9 9 9 9 9 10 10 10 10 9 8 5 5 7 8 10 10 10 11 11 11
7 7 8 8 8 8 7 6 6 5 5 5 5 5 4 5 5 5 5 6 7 8 8 8 9 9 9 9 9 9 8 8 6 4 6 6 7 9 8 9 9 10 10
7 7 8 8 7 7 7 6 5 5 4 4 5 5 4 4 4 4 5 6 7 7 7 8 8 8 8 8 8 8 7 5 4 5 5 5 6 8 7 8 8 9 10
7 7 8 7 7 6 6 5 5 5 4 4 4 4 4 4 4 5 5 5 6 6 6 7 7 8 7 8 8 7 6 4 3 4 4 5 6 6 6 7 8 8 9
6 6 7 7 7 6 6 5 5 5 4 4 4 4 4 4 4 4 4 5 5 5 6 6 6 7 7 7 7 6 5 3 3 4 4 4 5 5 5 6 7 8 9
5 5 5 6 7 6 5 5 4 5 5 4 4 4 4 4 4 5 4 4 4 5 5 6 6 6 6 6 6 6 5 2 2 3 3 3 5 4 5 6 7 8 8
4 4 5 5 5 5 5 5 5 5 5 4 5 5 4 4 5 5 5 4 5 4 5 5 5 6 6 6 6 6 4 3 2 2 2 3 4 4 5 7 7 8 8
4 4 4 4 4 4 4 5 5 5 5 4 4 4 3 3 4 5 5 5 5 5 5 5 5 6 5 5 6 5 3 2 2 1 2 3 2 4 5 6 7 8 8
7 5 4 4 4 4 4 4 4 3 3 2 2 3 2 2 3 3 5 5 4 5 5 5 5 6 4 4 5 4 2 2 1 2 2 3 1 3 5 6 6 7 7
6 5 4 4 4 4 3 3 2 3 3 2 2 2 2 2 2 2 2 3 2 3 3 4 4 3 3 3 3 3 2 1 1 1 1 2 1 2 4 5 6 6 7
6 5 4 4 4 4 4 3 3 3 2 2 2 1 1 1 1 1 1 1 1 2 2 2 2 2 2 2 2 3 2 2 1 1 2 2 1 2 3 4 5 6 7
6 5 5 5 5 5 4 3 3 3 2 2 2 2 2 1 1 1 1 1 1 1 2 2 2 2 2 2 2 2 2 1 1 1 2 3 2 2 2 3 4 5 7
7 6 5 6 5 5 5 4 3 3 3 2 2 2 2 2 2 1 1 1 1 2 2 2 3 2 2 2 2 2 2 1 1 1 1 2 3 2 2 2 3 4 6
7 6 6 6 6 6 6 5 4 4 4 3 2 2 2 2 2 2 1 1 1 2 2 2 3 2 2 2 2 2 2 1 1 1 0 0 1 3 2 2 2 3 4
6 6 7 5 6 6 5 5 4 4 4 3 2 2 2 2 2 2 2 1 1 2 2 2 2 2 2 2 2 2 2 2 1 1 1 1 1 1 2 2 2 3 3
6 6 7 7 6 6 5 4 4 4 4 3 3 2 2 2 2 2 2 2 2 2 2 2 2 2 2 2 2 2 1 1 1 1 1 1 2 2 2 4 3 3 3
5 6 6 6 6 6 5 4 3 4 4 3 3 3 3 3 3 3 2 2 2 2 2 3 3 2 2 2 3 2 1 1 1 1 1 1 2 2 1 2 2 3 3
5 5 6 6 6 6 5 4 4 4 4 3 3 4 4 4 4 3 2 2 3 3 3 4 3 3 2 2 2 2 1 1 1 1 1 1 1 1 1 2 1 1 1
6 6 6 6 7 7 5 5 3 4 3 3 3 4 4 4 4 3 3 3 3 3 4 4 4 3 2 2 2 2 1 1 1 0 0 0 1 1 1 1 1 1 1
5 6 6 6 6 6 6 4 3 3 3 3 4 3 4 4 4 3 4 4 3 4 4 4 5 5 3 3 2 2 2 2 1 1 1 1 1 1 1 0 1 1 1
5 5 5 5 6 6 6 5 6 5 5 4 4 4 4 4 4 4 4 4 4 3 4 4 5 4 5 4 3 2 2 1 2 1 2 2 2 2 2 2 1 2 2
4 4 5 5 5 5 5 6 6 5 4 3 3 4 4 4 4 4 4 4 4 4 4 4 4 5 5 5 4 3 2 2 2 3 3 3 2 3 2 2 2 2 2
2 2 3 5 5 5 5 5 6 6 5 5 4 4 4 4 3 4 4 4 4 4 4 4 4 5 5 5 5 4 3 3 3 3 4 4 3 3 2 2 2 2 2
Wind_Direction
154 150 139 138 128 119 113 108 104 100 96 99 103 107 110 109 110 108 107 105 104 103 103 100 100 98 99 100 101 100 97 96 93 90 86 85 86 88 87 87 94 91 88
148 149 138 138 131 123 116 110 106 103 98 100 103 108 110 107 105 107 106 109 106 103 102 101 99 98 97 101 102 100 100 97 94 92 94 94 87 88 88 78 72 90 92
144 146 145 135 130 124 117 113 110 105 100 103 106 108 110 110 106 103 102 105 107 103 100 100 97 100 98 99 100 99 98 99 99 100 114 109 99 92 93 90 88 94 95
144 146 143 133 131 126 120 115 111 107 105 105 108 107 107 110 110 108 103 104 106 104 100 101 97 102 102 101 100 99 97 101 104 122 115 105 106 98 96 97 96 97 97
145 146 138 135 132 127 122 116 112 110 110 111 115 115 112 112 111 113 109 110 107 103 101 104 104 103 104 107 103 99 99 102 119 134 109 108 107 105 102 101 99 100 100
147 145 137 137 134 129 126 120 113 106 106 116 119 118 115 117 118 112 110 111 112 109 106 107 111 109 106 108 108 104 100 106 146 122 116 116 112 109 108 109 107 110 107
150 148 142 136 135 133 130 124 117 109 106 116 121 125 119 112 110 108 108 113 117 117 113 110 112 115 114 114 110 107 104 107 123 120 122 119 109 111 117 121 119 116 115
150 150 149 142 136 134 134 130 125 114 110 119 116 114 115 112 113 111 109 118 124 126 125 118 116 116 117 119 115 109 106 125 133 118 126 124 108 122 128 128 127 123 120
151 154 154 154 148 138 134 132 126 114 107 119 120 110 103 104 110 108 109 117 128 129 129 128 126 124 120 125 119 112 106 116 147 120 122 123 117 137 140 136 132 129 123
161 162 159 158 154 153 150 135 129 118 109 107 108 100 99 108 109 107 114 113 119 124 127 128 130 126 126 126 122 116 119 157 157 141 131 111 124 154 146 141 137 132 126
179 182 177 167 161 159 159 145 141 129 117 117 115 107 110 123 121 118 101 101 115 115 121 126 128 132 134 132 126 128 152 166 154 154 127 93 138 167 153 143 141 137 130
197 196 193 179 172 168 162 159 155 151 139 133 129 133 128 119 112 111 99 98 105 114 122 126 129 143 154 149 142 155 172 171 157 154 119 85 137 172 165 155 152 144 138
207 205 199 187 182 176 167 166 155 147 140 135 128 129 135 130 122 113 121 119 124 139 143 137 151 156 156 151 155 163 171 169 167 144 116 97 164 169 166 162 157 152 146
213 210 204 195 186 182 178 173 164 154 148 143 140 144 142 134 132 129 133 139 153 159 149 153 149 153 153 153 164 169 169 170 171 134 78 83 138 168 164 163 166 165 159
219 215 209 199 195 185 178 175 173 170 168 166 162 166 165 151 157 158 147 135 158 163 165 162 153 156 151 151 163 167 166 170 167 143 101 90 105 126 148 159 164 168 168
223 219 210 205 198 191 183 181 181 177 175 177 164 165 176 172 167 179 171 163 178 173 181 170 162 164 156 155 159 156 167 166 157 145 128 96 85 95 121 154 164 173 176
224 218 210 205 199 194 191 187 182 179 178 179 163 164 168 173 185 187 186 187 186 171 171 162 159 162 154 148 145 131 123 130 131 152 179 120 98 86 92 144 163 167 169
221 215 207 200 197 194 189 191 183 181 179 178 172 170 171 171 193 189 183 189 180 170 170 164 164 164 160 153 133 115 102 95 100 108 123 151 104 75 78 83 151 159 163
217 210 202 198 195 191 188 188 183 177 181 176 173 173 182 183 196 189 185 181 174 167 170 169 170 175 163 146 125 106 95 94 84 82 102 102 97 83 79 70 86 115 147
212 206 200 194 191 183 179 180 180 181 184 182 179 182 188 192 198 187 182 180 175 172 168 167 164 163 157 134 109 87 71 93 98 95 123 102 91 93 104 100 83 85 110
203 201 197 193 186 180 180 184 189 195 191 191 191 191 194 200 198 189 187 179 181 184 177 169 157 154 139 135 125 103 73 79 97 109 126 132 110 92 116 109 89 132 140
204 201 198 199 193 190 193 189 190 186 194 196 195 194 198 199 195 194 193 191 194 189 182 179 173 174 171 189 189 175 185 189 143 48 244 210 161 103 84 116 136 169 205
208 205 202 201 198 195 190 178 163 167 177 189 194 197 199 200 195 197 200 198 196 194 193 192 191 191 188 205 216 215 209 209 220 202 249 239 224 218 202 152 188 192 213
216 208 205 203 200 195 187 190 188 192 196 204 203 200 195 197 196 198 203 202 199 200 203 201 203 204 195 199 207 240 252 207 210 202 223 247 258 247 236 218 233 215 218
211 205 204 200 200 195 192 195 200 205 205 201 199 201 200 195 195 196 199 205 203 204 208 207 209 210 204 201 203 203 204 210 229 236 243 245 253 245 243 240 231 226 226
210 205 205 199 199 198 198 202 206 207 201 197 204 204 207 200 196 195 195 203 206 208 208 208 211 216 215 208 206 206 207 212 218 228 242 246 255 262 268 250 233 226 228
Height
1531 1532 1533 1534 1535 1536 1536 1537 1537 1537 1538 1538 1538 1539 1539 1539 1540 1540 1540 1541 1541 1541 1541 1541 1541 1542 1542 1542 1542 1543 1543 1544 1544 1544 1545 1545 1545 1545 1546 1546 1546 1546 1546
1530 1531 1532 1534 1535 1536 1536 1537 1537 1538 1538 1538 1539 1539 1539 1540 1540 1540 1541 1541 1541 1542 1542 1542 1542 1542 1543 1543 1543 1544 1544 1545 1545 1546 1546 1546 1547 1547 1547 1548 1548 1548 1548
1530 1531 1532 1533 1535 1535 1536 1537 1537 1538 1538 1538 1539 1539 1539 1540 1540 1540 1541 1541 1542 1542 1542 1542 1543 1543 1543 1544 1544 1545 1545 1546 1546 1547 1547 1548 1548 1548 1549 1549 1549 1549 1549
1530 1531 1532 1533 1534 1535 1536 1536 1537 1537 1538 1538 1538 1539 1539 1540 1540 1540 1541 1541 1542 1542 1542 1543 1543 1544 1544 1544 1545 1545 1546 1546 1547 1548 1549 1550 1550 1549 1550 1550 1550 1551 1551
1530 1531 1532 1533 1534 1535 1535 1536 1536 1537 1537 1537 1538 1538 1539 1539 1539 1540 1540 1541 1541 1542 1542 1543 1543 1544 1544 1545 1545 1546 1546 1547 1548 1549 1550 1550 1550 1550 1551 1551 1551 1552 1552
1530 1531 1532 1533 1534 1534 1535 1535 1536 1536 1536 1536 1537 1537 1538 1538 1539 1539 1540 1540 1541 1542 1542 1543 1543 1544 1545 1545 1546 1546 1547 1548 1548 1550 1550 1551 1551 1551 1551 1551 1552 1552 1553
1530 1531 1532 1532 1533 1534 1534 1535 1535 1535 1535 1536 1536 1537 1537 1537 1538 1538 1539 1540 1541 1541 1542 1543 1543 1544 1544 1545 1546 1546 1547 1548 1549 1550 1550 1551 1551 1551 1551 1552 1552 1553 1553
1529 1530 1531 1532 1532 1533 1533 1534 1534 1534 1535 1535 1535 1536 1536 1537 1537 1538 1538 1539 1540 1541 1541 1542 1543 1543 1544 1545 1546 1546 1547 1548 1549 1550 1550 1551 1551 1551 1552 1552 1553 1553 1554
1529 1530 1530 1531 1532 1532 1533 1533 1533 1533 1534 1534 1534 1535 1535 1536 1536 1537 1538 1538 1539 1540 1541 1541 1542 1542 1543 1544 1545 1546 1547 1548 1550 1550 1550 1551 1551 1551 1552 1552 1553 1553 1554
1528 1529 1529 1530 1531 1531 1532 1532 1532 1532 1533 1533 1533 1534 1534 1535 1536 1536 1537 1537 1538 1539 1540 1540 1541 1542 1542 1543 1544 1545 1546 1547 1549 1550 1550 1550 1550 1551 1552 1552 1553 1553 1554
1527 1528 1528 1529 1529 1530 1530 1531 1531 1531 1532 1532 1532 1533 1533 1534 1535 1535 1536 1536 1537 1538 1539 1539 1540 1541 1541 1542 1543 1544 1546 1547 1548 1549 1549 1550 1550 1551 1551 1552 1553 1553 1554
1525 1526 1527 1527 1528 1528 1529 1529 1530 1530 1530 1531 1531 1531 1532 1533 1533 1534 1534 1535 1536 1537 1537 1538 1539 1539 1540 1541 1542 1543 1545 1546 1547 1548 1548 1549 1549 1550 1551 1552 1552 1553 1554
1523 1524 1525 1526 1526 1527 1527 1528 1528 1529 1529 1529 1530 1530 1531 1531 1532 1533 1533 1534 1535 1535 1536 1537 1537 1538 1539 1540 1541 1542 1543 1545 1546 1547 1547 1548 1549 1549 1550 1551 1552 1552 1553
1521 1522 1522 1523 1524 1525 1526 1526 1527 1527 1527 1528 1528 1529 1529 1530 1530 1531 1532 1532 1533 1533 1534 1535 1536 1536 1537 1538 1539 1541 1542 1543 1544 1545 1545 1546 1547 1548 1549 1549 1551 1552 1552
1519 1519 1520 1521 1522 1523 1523 1524 1525 1525 1526 1526 1527 1527 1528 1528 1529 1529 1530 1530 1531 1532 1532 1533 1534 1535 1536 1537 1538 1539 1540 1541 1542 1543 1544 1545 1546 1547 1548 1548 1549 1550 1551
1515 1516 1517 1518 1519 1520 1521 1522 1522 1523 1524 1524 1525 1525 1526 1526 1527 1527 1528 1528 1529 1530 1531 1532 1532 1533 1534 1535 1536 1537 1538 1539 1541 1542 1543 1543 1544 1545 1546 1547 1548 1549 1550
1512 1513 1514 1515 1516 1517 1518 1519 1520 1521 1522 1522 1523 1523 1524 1524 1525 1525 1526 1526 1527 1528 1529 1530 1530 1531 1532 1533 1534 1535 1536 1537 1538 1539 1540 1541 1542 1543 1544 1545 1546 1547 1548
1509 1510 1511 1512 1513 1514 1516 1517 1518 1519 1519 1520 1521 1521 1522 1522 1523 1523 1524 1524 1525 1526 1527 1528 1529 1529 1530 1531 1532 1532 1534 1535 1536 1537 1538 1539 1540 1541 1542 1543 1544 1545 1546
1506 1507 1508 1509 1510 1512 1513 1514 1515 1516 1517 1518 1518 1519 1519 1520 1520 1521 1521 1522 1523 1523 1525 1526 1527 1528 1528 1529 1530 1530 1532 1533 1534 1535 1536 1536 1537 1538 1539 1540 1541 1542 1543
1502 1504 1505 1506 1507 1509 1510 1511 1512 1513 1514 1515 1516 1516 1517 1517 1518 1518 1519 1520 1520 1521 1522 1523 1525 1526 1526 1527 1528 1529 1530 1530 1531 1532 1533 1534 1535 1536 1537 1537 1538 1539 1540
1499 1500 1501 1503 1504 1506 1507 1508 1509 1510 1511 1512 1513 1514 1514 1515 1515 1516 1517 1517 1518 1519 1520 1521 1522 1523 1524 1525 1526 1527 1528 1528 1529 1529 1530 1531 1532 1533 1534 1534 1536 1537 1538
1495 1497 1498 1500 1501 1502 1504 1505 1506 1507 1508 1510 1510 1511 1512 1512 1513 1513 1514 1515 1516 1517 1518 1519 1520 1521 1522 1523 1524 1525 1527 1528 1527 1527 1528 1529 1530 1531 1531 1532 1533 1534 1535
1492 1493 1495 1496 1498 1499 1501 1502 1503 1505 1506 1507 1508 1508 1509 1510 1510 1511 1512 1513 1513 1514 1515 1516 1517 1518 1519 1521 1522 1524 1525 1525 1525 1525 1525 1526 1527 1527 1528 1529 1529 1530 1532
1489 1490 1492 1493 1495 1496 1498 1499 1500 1501 1502 1503 1505 1505 1506 1507 1508 1508 1509 1510 1511 1511 1512 1513 1514 1515 1517 1518 1519 1520 1521 1522 1523 1523 1524 1524 1524 1525 1525 1525 1526 1527 1528
1487 1487 1489 1490 1492 1493 1494 1496 1497 1498 1499 1500 1501 1502 1503 1504 1504 1505 1506 1507 1508 1509 1509 1510 1511 1512 1513 1514 1516 1517 1518 1519 1520 1520 1520 1521 1522 1522 1522 1522 1522 1523 1524
1484 1485 1486 1487 1488 1490 1491 1493 1494 1495 1496 1497 1498 1499 1500 1501 1501 1502 1503 1504 1505 1505 1506 1507 1508 1509 1510 1511 1512 1513 1514 1516 1516 1517 1517 1518 1518 1519 1519 1519 1519 1520 1521